Location: Eschertshofen
(49.3064°N, 11.5756°E)
Time: 11:57:07
(UTC+00:00)

SL-14 R/B - Pass Details

Date: 18 September 2020
Orbit: 519 x 554 km, 82.4° (Epoch: 23 October)

Event Time Altitude Azimuth Distance (km) Brightness Sun altitude
Rises 19:10:50 0° 358° (N) 2,672 7.2 -18.3°
Reaches altitude 10° 19:13:11 10° 10° (N) 1,783 6.1 -18.7°
Enters shadow 19:16:01 28° 54° (NE) 1,021 4.4 -19.1°
